www.pogodaiklimat.ru

Погода и климат >> Архив погоды >> Индия >> Пондичерри >> Пондичерри


ПОГОДА в Пондичерри

  • Прогноз погоды в Пондичерри
  • Монитор погоды в Пондичерри

АРХИВ ПОГОДЫ в Пондичерри

Время (UTC), дата Ветер
(напр.,м/с)
 
Видим.   Явления Облачность Т
(С)
Тd
(С)
f
(%)
Тe
(С)
Тes
(С)
Комфортность P
(гПа)
Po
(гПа)
Тmin
(С)
Tmax
(С)
R
(мм)
R24
(мм)
S
(см)
15 15.09 Ю 1 4000 м 8/3 600 м
[Sc Ac trans Ci sp]
+26.8 +21.4 72 +34 +34 очень
душно
1008.5 1004.2
18 15.09 ЮЗ 2 4000 м 6/4 600 м
[Sc Ac trans Ci fib]
+27.4 +24.2 83 +38 +38 очень
душно
1009.7 1005.4
21 15.09 штиль 0 4000 м 6/1 600 м
[Sc Ac trans]
+25.0 +22.0 83 +32 +32 очень
душно
1007.4 1003.1
00 16.09 З 2 4000 м 8/1 600 м
[Sc Ac trans Ci fib]
+24.8 +22.7 88 +33 +33 очень
душно
1007.4 1003.1
03 16.09 штиль 0 10 км 6/3 600 м
[Sc Ac trans Ci fib]
+27.2 +24.3 84 +38 +43 очень
душно
1008.9 1004.6 +23.0 +33.0
06 16.09 СЗ 1 10 км 8/4 600 м
[Sc Ac trans Ci fib]
+32.6 +24.7 63 +46 +55 опасность
перегрева
1007.4 1003.2
09 16.09 С 2 10 км 9/4 600 м
[Sc diur, vesp Ac trans Ci fib]
+33.4 +24.3 59 +46 +51 опасность
перегрева
1004.6 1000.4
12 16.09 СЗ 2 4000 м слаб. морось {гроза} 9/5 600 м
[Cb calv Ac trans Ci sp]
+27.4 +22.4 74 +36 +36 очень
душно
1004.4 1000.1 +34.4 0.0
15 16.09 Ю 2 4000 м {морось} 8/4 600 м
[Sc Ac trans Ci fib]
+26.8 +23.0 80 +36 +36 очень
душно
1006.7 1002.4 0.2
18 16.09 ЮЗ 2 4000 м 6/4 600 м
[Sc Ac trans Ci fib]
+27.0 +24.4 86 +38 +38 очень
душно
1007.3 1003.0 0.2
21 16.09 З 2 4000 м слаб. дождь {морось} 10/5 600 м
[Sc Ac As]
+25.0 +23.5 91 +34 +34 очень
душно
1005.8 1001.5 0.8
00 17.09 З 2 4000 м {дождь, морось} 9/4 600 м
[Sc Ac trans Ci fib]
+25.2 +23.4 90 +34 +34 очень
душно
1005.4 1001.1 1
03 17.09 Ю 1 4000 м 9/4 600 м
[Sc Ac trans Ci fib]
+26.4 +23.5 84 +36 +39 очень
душно
1007.5 1003.2 +22.8 +34.4 1
06 17.09 ЮЗ 1 10 км 6/3 600 м
[Sc Ac trans Ci fib]
+31.6 +24.5 66 +44 +57 опасность
перегрева
1006.9 1002.7
09 17.09 ЮЗ 1 10 км 9/5 600 м
[Sc diur, vesp Ac trans Ci fib]
+32.8 +24.6 62 +46 +51 опасность
перегрева
1004.3 1000.1
12 17.09 Ю 1 4000 м гроза, ливневой дождь 9/4 600 м
[Cb cap Ac trans Ci fib]
+26.4 +23.8 86 +36 +37 очень
душно
1004.1 999.8 +32.8 11
15 17.09 ЮЗ 1 4000 м гроза, ливневой дождь 10/5 300 м
[St As op]
+25.4 +23.9 91 +35 +35 очень
душно
1006.7 1002.4 22
18 17.09 З 1 4000 м {гроза, дождь} 10/5 300 м
[St As op]
+25.0 +22.6 87 +33 +33 очень
душно
1006.8 1002.5 23
21 17.09 Ю 1 4000 м 10/4 600 м
[Sc Ac trans Ci sp]
+24.6 +23.7 95 +33 +33 очень
душно
1005.5 1001.2 23
00 18.09 ЮЗ 1 4000 м слаб. морось 10/5 600 м
[Sc Ac As]
+25.2 +24.6 96 +35 +35 очень
душно
1005.6 1001.3 23
03 18.09 штиль 0 4000 м в посл. час морось 10/4 600 м
[Sc Ac trans Ci fib]
+26.2 +25.6 97 +39 +41 очень
душно
1008.5 1004.2 +22.8 +32.8 23
06 18.09 ЮЗ 1 10 км {морось} 10/5 600 м
[Sc Ac trans]
+28.0 +24.5 81 +39 +44 очень
душно
1008.5 1004.2
09 18.09 ЮЗ 1 10 км 10/5 600 м
[Sc Ac trans]
+30.2 +25.1 74 +44 +47 опасность
перегрева
1005.6 1001.3
12 18.09 Ю 2 10 км 9/3 600 м
[Sc Ac trans Ci fib]
+30.2 +25.6 76 +44 +45 опасность
перегрева
1004.8 1000.5 +30.4
15 18.09 Ю 1 10 км 8/3 600 м
[Sc Ac trans Ci fib]
+27.4 +25.1 87 +39 +39 очень
душно
1007.0 1002.7
18 18.09 Ю 1 10 км 8/3 600 м
[Sc Ac trans Ci fib]
+27.4 +24.4 84 +39 +39 очень
душно
1007.5 1003.2
21 18.09 Ю 1 4000 м 8/3 600 м
[Sc Ac trans Ci fib]
+27.0 +24.1 84 +37 +37 очень
душно
1006.2 1001.9
00 19.09 ЮЗ 1 4000 м 9/3 600 м
[Sc Ac trans Ci fib]
+26.8 +23.9 84 +37 +37 очень
душно
1006.6 1002.3
03 19.09 СЗ 1 10 км 10/4 600 м
[Sc Ac As]
+27.0 +25.0 89 +39 +40 очень
душно
1009.1 1004.8 +24.8 +30.4
06 19.09 штиль 0 10 км 10/3 600 м
[Sc diur, vesp Ac trans Cs]
+28.6 +24.3 78 +40 +50 очень
душно
1008.9 1004.6
09 19.09 штиль 0 10 км 9/4 600 м
[Sc diur, vesp Ac trans Ci fib]
+29.8 +24.4 73 +42 +49 опасность
перегрева
1006.1 1001.8
12 19.09 штиль 0 10 км 9/3 600 м
[Sc Ac trans Ci sp]
+28.4 +25.0 82 +41 +41 опасность
перегрева
1006.2 1001.9 +30.3
15 19.09 Ю 1 4000 м 8/3 600 м
[Sc Ac trans Ci fib]
+27.8 +24.6 83 +39 +39 очень
душно
1008.6 1004.3
18 19.09 Ю 1 4000 м 5/0 2000 м
[Ac trans Ci fib]
+26.6 +22.8 80 +35 +35 очень
душно
1008.4 1004.1
21 19.09 ЮЗ 1 4000 м 9/3 600 м
[Sc Ac trans Ci fib]
+25.6 +23.3 87 +34 +34 очень
душно
1007.5 1003.2
00 20.09 ЮЗ 1 4000 м 9/3 600 м
[Sc Ac trans Ci fib]
+25.8 +24.4 92 +36 +36 очень
душно
1007.3 1003.0
03 20.09 штиль 0 10 км 9/4 600 м
[Sc Ac trans Ci fib]
+27.2 +24.3 84 +38 +41 очень
душно
1009.4 1005.1 +23.6 +30.3
06 20.09 штиль 0 10 км 9/3 600 м
[Sc diur, vesp Ac trans Ci sp]
+31.0 +25.1 71 +45 +56 опасность
перегрева
1008.9 1004.6
09 20.09 штиль 0 10 км гроза без осадков 9/4 600 м
[Cb calv Ac trans Ci sp]
+30.4 +25.6 76 +45 +52 опасность
перегрева
1006.3 1002.0
12 20.09 ЮЗ 1 10 км 9/4 600 м
[Sc Ac trans Cs]
+28.8 +24.8 79 +41 +41 опасность
перегрева
1006.3 1002.0 +31.3
15 20.09 штиль 0 4000 м 4/1 600 м
[Sc Ci fib]
+27.4 +26.0 92 +41 +41 опасность
перегрева
1007.6 1003.3
18 20.09 штиль 0 4000 м 4/1 600 м
[Sc Ci fib]
+27.4 +25.4 89 +40 +40 очень
душно
1008.8 1004.5
21 20.09 ЮЗ 1 4000 м 5/3 600 м
[Sc Ci fib]
+27.0 +25.6 92 +40 +40 очень
душно
1007.6 1003.3
00 21.09 штиль 0 4000 м 3/0
[Ci fib]
+26.4 +23.5 84 +36 +36 очень
душно
1007.5 1003.2
03 21.09 ЮЗ 1 10 км 3/1 600 м
[Sc Ac trans]
+28.4 +25.6 85 +42 +48 опасность
перегрева
1008.9 1004.6 +24.2 +31.3
06 21.09 Ю 1 10 км 5/4 600 м
[Sc Ac trans]
+32.4 +25.4 67 +47 +60 опасность
перегрева
1007.8 1003.5
09 21.09 Ю 1 10 км 5/4 600 м
[Sc Ac trans]
+33.0 +25.7 66 +48 +57 опасность
перегрева
1004.8 1000.6
12 21.09 Ю 1 10 км 3/1 600 м
[Sc Ac trans]
+30.0 +26.1 80 +45 +46 опасность
перегрева
1005.3 1001.0 +33.0
15 21.09 ЮВ 1 4000 м гроза без осадков 8/4 600 м
[Cb cap Ac As]
+28.4 +25.6 85 +42 +42 опасность
перегрева
1007.3 1003.0
18 21.09 С 1 4000 м гроза без осадков 9/5 600 м
[Cb cap Ac As]
+26.8 +22.7 78 +35 +35 очень
душно
1008.4 1004.1
21 21.09 штиль 0 4000 м {дождь, гроза} 10/5 600 м
[St Ac As]
+25.6 +24.1 91 +35 +35 очень
душно
1007.0 1002.7 0.3
00 22.09 штиль 0 4000 м 10/5 600 м
[St Ac As]
+25.4 +23.9 91 +35 +35 очень
душно
1007.1 1002.8 0.3
03 22.09 Ю 1 10 км 10/4 600 м
[Sc Ac trans Ci fib]
+27.0 +25.3 90 +39 +42 очень
душно
1009.3 1005.0 +23.6 +33.0 0.3
09 22.09 штиль 0 10 км 10/4 600 м
[Sc Ci fib]
+31.8 +26.8 75 +49 +58 опасность
перегрева
1005.5 1001.3
12 22.09 СЗ 1 10 км 9/4 600 м
[Sc Ac trans Ci sp]
+29.2 +26.4 85 +45 +45 опасность
перегрева
1005.9 1001.6 +32.8

 

Местоположение метеостанции Пондичерри (Пондичерри, Индия): широта 11.97 долгота 79.82 высота над уровнем моря 38 м.

В архиве по умолчанию представлена погода в Пондичерри за последнюю неделю. Архивные данные за месяц целиком и за предыдущие месяцы, начиная с января 2011 года, Вы можете получить, выбрав интересующий диапазон дат из раскрывающегося списка и нажав кнопку "Ввод!".


*Определитесь, кто Вы:
робот инопланетянин человек

Внимание! Время в таблицах - всемирное. Для получения местного времени необходимо прибавить поправку, которая равна 5.5 ч.

Смотрите также архив погоды в соседних городах и на ближайших метеорологических станциях:

Погода в Куддалоре (Тамилнад, Индия) (23 км)
Погода в Парангипеттае (Тамилнад, Индия) (53 км)
Погода в Карайкале (Пондичерри, Индия) (117 км)
Погода в Ченнаи (Тамилнад, Индия) (121 км)
Погода в Веллоре (Тамилнад, Индия) (128 км)
Погода в Ченнаи (Тамилнад, Индия) (129 км)
Погода в Нагапаттинаме (Тамилнад, Индия) (134 км)
Погода в Терутани (Тамилнад, Индия) (135 км)
Погода в Тирупатчере (Тамилнад, Индия) (147 км)
Погода в Танджавуре (Тамилнад, Индия) (152 км)

Пояснения к столбцам:

Ветер - указаны скорость ветра в м/с - средняя за 10 мин, порывы в срок и между сроками (в фигурных скобках) и направление, откуда дует ветер: С - северный, СВ - северо-восточный, В - восточный, ЮВ - юго-восточный, Ю - южный, ЮЗ - юго-западный, З - западный, СЗ - северо-западный.
Видимость - горизонтальная дальность видимости в метрах или километрах. При видимости от 1 до 10 км при отсутствии осадков обычно наблюдается дымка, при ухудшении видимости до 1 км и менее - туман. В сухую погоду видимость может ухудшаться дымом, пылью или мглою.
Явления - указаны атмосферные явления, наблюдавшиеся в срок или в последний час перед сроком; фигурными скобками обозначены явления, наблюдавшиеся между сроками (за 1-3 часа до срока); квадратными скобками обозначены град или гололедные отложения с указанием их диаметра в мм.
Облачность - указаны через наклонную черту общая и нижняя облачность в баллах и высота нижней границы облаков в метрах; квадратными скобками обозначены формы облаков: Ci - перистые, Cs - перисто-слоистые, Cc - перисто-кучевые, Ac - высококучевые, As - высокослоистые, Sc - слоисто-кучевые, Ns - слоисто-дождевые, Cu - кучевые, Cb - кучево-дождевые. Подробнее классификацию облаков см. в Атласе облаков (PDF).
T - Температура воздуха - температура, измеренная на высоте 2 м над землей.
Td - Температура точки росы - температура, при понижении до которой содержащийся в воздухе водяной пар достигнет насыщения.
f - Относительная влажность воздуха - влажноcть воздуха, измеренная на высоте 2 м над землей.
Te - Эффективная температура - температура, которую ощущает одетый по сезону человек в тени. Характеристика душности погоды. При расчете учитывается влияние влажности воздуха и скорости ветра на теплоощущения человека.
Tes - Эффективная температура на солнце - температура, которую ощущает человек, с поправкой на солнечный нагрев. Характеристика знойности погоды. Зависит от высоты солнца над горизонтом, облачности и скорости ветра. Ночью, в пасмурную погоду, а также при ветре 12 м/с и более поправка равна нулю.
P - Атмосферное давление - приведенное к уровню моря атмосферное давление.
Po - Атмосферное давление - измеренное на уровне метеостанции атмосферное давление.
Tmin - Минимальная температура - минимум температуры воздуха на высоте 2 м над землей.
Tmax - Максимальная температура - максимум температуры воздуха на высоте 2 м над землей.
R - Количество осадков - Количество выпавших осадков за период времени, мм. При наведении курсора мыши на число - период времени, за который выпало указанное количество осадков.
R24 - Количество осадков - Количество выпавших осадков за 24 часа, мм.
S - Снежный покров - Высота снежного покрова, см. При наведении курсора мыши на число - состояние снежного покрова и степень покрытия местности в баллах.